Track COSMOS 1995 now! 10-day predictions COSMOS 1995 is classified as:
1 19786U 89009B 19053.78598046 +.00000011 +00000-0 +21063-5 0 9991 2 19786 082.6206 282.7513 0004334 057.4464 349.5511 12.62147563383334